Regional Weather Roundup
Issued by NWS Newport/Morehead, NC

Current Version | Previous Version | Graphics & Text | Print | Product List | Glossary Off
Versions: 1 2 3 4 5 6 7 8 9 10 11 12 13 14 15 16 17 18 19 20 21 22 23 24 25 26 27 28 29 30 31 32 33 34 35 36 37 38 39 40 41 42 43 44 45 46 47 48 49 50

000
ASUS42 KMHX 311210
RWRMHX
WEATHER ROUNDUP FOR EASTERN NORTH CAROLINA
NATIONAL WEATHER SERVICE NEWPORT/MOREHEAD CITY NC
800 AM EDT THU JUL 31 2014

NOTE: "FAIR" INDICATES FEW OR NO CLOUDS BELOW 12,000 FEET
WITH NO SIGNIFICANT WEATHER AND/OR OBSTRUCTIONS TO VISIBILITY

NCZ015>017-031-032-045>047-102-103-311300-
NORTH COAST

CITY           SKY/WX    TMP DP  RH WIND       PRES   REMARKS
EDENTON        CLOUDY    67  65  93 CALM      30.13R
ELIZABETH CITY PTSUNNY   70  67  90 CALM      30.13R
KITTY HAWK     PTSUNNY   73  67  82 CALM      30.12S
MANTEO         NOT AVBL

$$

NCZ045>047-081-094-103-104-311300-
CENTRAL COAST

CITY           SKY/WX    TMP DP  RH WIND       PRES   REMARKS
FRISCO         SUNNY     79  66  64 E5        30.12R
SWANQUARTER      N/A     73 N/A N/A N3        30.09S

$$

NCZ095-097-098-100-101-311300-
SOUTHERN COAST

CITY           SKY/WX    TMP DP  RH WIND       PRES   REMARKS
BEAUFORT       MOSUNNY   75  70  84 CALM      30.10R
CEDAR ISLAND     N/A     79 N/A N/A NE9       30.15S
JACKSONVILLE   CLOUDY    74  67  78 E5        30.10R
NEWPORT        NOT AVBL
PINEY ISLAND   MOSUNNY   80  69  69 E10       30.11R
WILMINGTON     CLOUDY    73  69  87 NE5       30.08R


$$

NCZ011>013-027>030-043-044-078>080-089-090>093-098-311300-
COASTAL PLAIN

CITY           SKY/WX    TMP DP  RH WIND       PRES   REMARKS
AHOSKIE        PTSUNNY   67  64  90 CALM      30.14R
CLINTON        CLOUDY    72  68  89 CALM      30.11R
ELIZABETHTOWN  CLOUDY    69  68  96 CALM      30.09S
GOLDSBORO      CLOUDY    70  69  98 NE2       30.10R
GREENVILLE     PTSUNNY   70  66  88 CALM      30.14R
HAVELOCK       PTSUNNY   74  68  81 E3        30.12R
KENANSVILLE    CLOUDY    70  67  90 CALM      30.12R
KINSTON        CLOUDY    70  68  94 CALM      30.12R
NEW BERN       PTSUNNY   74  68  81 NE3       30.12R
RICHLANDS      CLOUDY    70  64  83 N3        30.11R
ROANOKE RAPIDS NOT AVBL
ROCKY MOUNT    CLOUDY    69  65  86 E3        30.12R
WASHINGTON     PTSUNNY   67  64  90 CALM      30.13R
WHITEVILLE     CLOUDY    70  67  90 CALM      30.08S

$$

AMZ130-135-150-152-154-156-158-170-250-252-270-ANZ085-086-088-633-658-670-311300-
MARINE OBSERVATIONS

STATION/POSITION TIME  TEMP    WIND        PRES    WAVE   SWELL
                       AIR SEA DIR/SP/G            HT/PER HT/PER
                 (UTC) (F)     (DEG/KT/KT) (MB)    (FT/S) (FT/S)
CHESAPEAKE LIGHT NOT AVBL
BUOY 44014       1200   76 78  100/  4/  6 1020.1    3/ 8   2/ 8
DUCK             1200   76 76  130/  3/  4 1019.5
2E DUCK          1200                        N/A     2/ 8
OREGON INLET     1200   77 79   60/  4/  6 1020.1
BUOY 44095       1200      77                N/A     3/ 7
20E OREGON INLET NOT AVBL
HATTERAS CG      1200   78 79   60/  4/  5 1020.2
DIAMOND BUOY     1200          VRB 10/ 12  1019.4    3/ 6   3/ 6
CAPE LOOKOUT     1100   79      80/ 11/ 12 1018.7
BEAUFORT LAB     1200   74 81   30/  3/  4 1018.6
30 SE NEW RIVER  1200   80 81   90/ 12/ 14 1018.8    4/ 7   3/ 7
5 SE WRIGHTSVILL 1100   76 81   90/ 14/ 16   N/A
BUOY 41002       1149   79 80   50/  8/ 10 1018.0    3/ 6   3/ 6
BUOY 41004       1200   82 83   80/ 16/ 17 1015.9    3/ 5   2/ 9

$$



USA.gov is the U.S. government's official web portal to all federal, state and local government web resources and services.